Powrót do katalogu

CZ-4 DEB

AktywnySSO
NORAD 20890·DEBRIS·🇨🇳 China

Wystrzelony Sep 3, 1990 z Taiyuan Satellite Launch Center

Loading…

Następne Przeloty (najbliższe 24 godziny)

TLE

ŚwieżeSource: Space-Track

Epoka: Sep 14, 2026, 09:39 UTC

1 20890U 90081BA  26257.40267012 -.00000048  00000-0 -25042-5 0  9993
2 20890  98.9476 236.7527 0012742 221.3932 138.6272 14.07232893842949

Śledź CZ-4 DEB w czasie rzeczywistym z AllMySat

Download on the App Store